| time (UTC) | temp F | wind direction | speed knots | gust knots | rain 1hr in | rain 24hr in | rain mn in | humidity % | barometer mb |
| 20260505070530 | 54 | 147 | 7.0 | 7.8 | 0.00 | 0.00 | 0.00 | 66 | 1009.0 |
| 20260505070029 | 55 | 101 | 4.3 | 7.8 | 0.00 | 0.00 | 0.00 | 66 | 1009.0 |
| 20260505065531 | 55 | 81 | 4.3 | 6.1 | 0.00 | 0.00 | 0.00 | 65 | 1010.0 |
| 20260505065029 | 55 | 115 | 5.2 | 7.8 | 0.00 | 0.00 | 0.00 | 64 | 1010.0 |
| 20260505064531 | 55 | 146 | 7.0 | 9.6 | 0.00 | 0.00 | 0.00 | 64 | 1010.0 |
| 20260505064029 | 55 | 145 | 7.8 | 11.3 | 0.00 | 0.00 | 0.00 | 62 | 1010.0 |
| 20260505063531 | 56 | 132 | 11.3 | 14.8 | 0.00 | 0.00 | 0.00 | 61 | 1010.0 |
| 20260505063029 | 56 | 129 | 11.3 | 15.6 | 0.00 | 0.00 | 0.00 | 59 | 1010.0 |
| 20260505062530 | 56 | 143 | 9.6 | 14.8 | 0.00 | 0.00 | 0.00 | 59 | 1010.0 |
| 20260505062030 | 56 | 146 | 9.6 | 12.2 | 0.00 | 0.00 | 0.00 | 61 | 1010.0 |
| 20260505061530 | 56 | 145 | 7.0 | 10.4 | 0.00 | 0.00 | 0.00 | 61 | 1010.0 |
| 20260505061029 | 56 | 164 | 3.5 | 7.0 | 0.00 | 0.00 | 0.00 | 60 | 1010.0 |
| 20260505060530 | 56 | 137 | 2.6 | 5.2 | 0.00 | 0.00 | 0.00 | 60 | 1010.0 |
| 20260505060030 | 56 | 118 | 5.2 | 7.0 | 0.00 | 0.00 | 0.00 | 61 | 1010.0 |
| 20260505055529 | 56 | 133 | 7.8 | 11.3 | 0.00 | 0.00 | 0.00 | 61 | 1010.0 |
| 20260505055030 | 56 | 147 | 8.7 | 12.2 | 0.00 | 0.00 | 0.00 | 61 | 1010.0 |
| 20260505054529 | 56 | 135 | 5.2 | 7.8 | 0.00 | 0.00 | 0.00 | 61 | 1010.0 |
| 20260505054030 | 56 | 145 | 5.2 | 7.8 | 0.00 | 0.00 | 0.00 | 60 | 1010.0 |
| 20260505053530 | 56 | 137 | 9.6 | 13.9 | 0.00 | 0.00 | 0.00 | 60 | 1010.0 |
| 20260505053029 | 56 | 130 | 11.3 | 14.8 | 0.00 | 0.00 | 0.00 | 61 | 1010.0 |
| 20260505052529 | 57 | 139 | 7.0 | 9.6 | 0.00 | 0.00 | 0.00 | 60 | 1010.0 |
| 20260505052030 | 57 | 134 | 9.6 | 13.0 | 0.00 | 0.00 | 0.00 | 60 | 1010.0 |
| 20260505051529 | 57 | 135 | 11.3 | 14.8 | 0.00 | 0.00 | 0.00 | 58 | 1010.0 |
| 20260505051032 | 57 | 147 | 8.7 | 11.3 | 0.00 | 0.00 | 0.00 | 58 | 1010.0 |
| 20260505050531 | 57 | 149 | 7.0 | 11.3 | 0.00 | 0.00 | 0.00 | 60 | 1010.0 |
| 20260505041533 | 58 | 129 | 7.8 | 10.4 | 0.00 | 0.00 | 0.00 | 62 | 1009.0 |
| 20260505041029 | 58 | 124 | 2.6 | 5.2 | 0.00 | 0.00 | 0.00 | 62 | 1009.0 |
| 20260505040530 | 59 | 128 | 5.2 | 7.0 | 0.00 | 0.00 | 0.00 | 62 | 1009.0 |
| 20260505040029 | 59 | 133 | 7.8 | 11.3 | 0.00 | 0.00 | 0.00 | 61 | 1009.0 |
| 20260505035529 | 60 | 131 | 5.2 | 11.3 | 0.00 | 0.00 | 0.00 | 60 | 1008.0 |
| 20260505035030 | 60 | 113 | 5.2 | 8.7 | 0.00 | 0.00 | 0.00 | 60 | 1008.0 |
| 20260505034529 | 60 | 137 | 5.2 | 7.8 | 0.00 | 0.00 | 0.00 | 57 | 1008.0 |
| 20260505034029 | 60 | 126 | 4.3 | 7.8 | 0.00 | 0.00 | 0.00 | 56 | 1008.0 |
| 20260505033530 | 60 | 61 | 1.7 | 3.5 | 0.00 | 0.00 | 0.00 | 55 | 1008.0 |
| 20260505033029 | 60 | 88 | 3.5 | 5.2 | 0.00 | 0.00 | 0.00 | 56 | 1008.0 |
| 20260505032529 | 61 | 87 | 2.6 | 4.3 | 0.00 | 0.00 | 0.00 | 55 | 1008.0 |
| 20260505032029 | 61 | 1 | 2.6 | 6.1 | 0.00 | 0.00 | 0.00 | 54 | 1008.0 |
| 20260505031529 | 61 | 87 | 4.3 | 4.3 | 0.00 | 0.00 | 0.00 | 55 | 1008.0 |
| 20260505031030 | 62 | 97 | 1.7 | 3.5 | 0.00 | 0.00 | 0.00 | 51 | 1008.0 |
| 20260505030530 | 62 | 112 | 2.6 | 5.2 | 0.00 | 0.00 | 0.00 | 43 | 1008.0 |
| 20260505030030 | 63 | 113 | 0.0 | 1.7 | 0.00 | 0.00 | 0.00 | 42 | 1008.0 |
| 20260505025530 | 63 | 0 | 0.0 | 0.0 | 0.00 | 0.00 | 0.00 | 41 | 1007.0 |
| 20260505025029 | 63 | 0 | 0.0 | 0.0 | 0.00 | 0.00 | 0.00 | 40 | 1007.0 |
| 20260505024533 | 63 | 0 | 0.0 | 0.0 | 0.00 | 0.00 | 0.00 | 40 | 1007.0 |
| 20260505024030 | 63 | 301 | 0.9 | 3.5 | 0.00 | 0.00 | 0.00 | 40 | 1007.0 |
| 20260505023529 | 64 | 0 | 0.0 | 0.0 | 0.00 | 0.00 | 0.00 | 41 | 1007.0 |
| 20260505023030 | 64 | 0 | 0.0 | 0.0 | 0.00 | 0.00 | 0.00 | 40 | 1007.0 |
| 20260505022529 | 64 | 14 | 0.0 | 1.7 | 0.00 | 0.00 | 0.00 | 40 | 1007.0 |
| 20260505022029 | 64 | 2 | 0.0 | 0.0 | 0.00 | 0.00 | 0.00 | 40 | 1007.0 |
| 20260505021529 | 64 | 138 | 3.5 | 5.2 | 0.00 | 0.00 | 0.00 | 40 | 1007.0 |
| 20260505021030 | 64 | 195 | 2.6 | 7.0 | 0.00 | 0.00 | 0.00 | 39 | 1007.0 |
| 20260505020529 | 65 | 208 | 2.6 | 3.5 | 0.00 | 0.00 | 0.00 | 39 | 1007.0 |
| 20260505020033 | 65 | 345 | 1.7 | 4.3 | 0.00 | 0.00 | 0.00 | 39 | 1007.0 |
| 20260505015530 | 65 | 171 | 6.1 | 9.6 | 0.00 | 0.00 | 0.00 | 39 | 1007.0 |
| 20260505015029 | 65 | 164 | 6.1 | 7.8 | 0.00 | 0.00 | 0.00 | 39 | 1007.0 |
| 20260505014530 | 65 | 345 | 4.3 | 6.1 | 0.00 | 0.00 | 0.00 | 39 | 1007.0 |
| 20260505014030 | 65 | 338 | 2.6 | 5.2 | 0.00 | 0.00 | 0.00 | 39 | 1007.0 |
| 20260505013048 | 65 | 170 | 5.2 | 11.3 | 0.00 | 0.00 | 0.00 | 39 | 1007.0 |
| 20260505012529 | 65 | 144 | 6.1 | 9.6 | 0.00 | 0.00 | 0.00 | 39 | 1007.0 |
| 20260505012030 | 65 | 148 | 11.3 | 13.9 | 0.00 | 0.00 | 0.00 | 38 | 1007.0 |
| 20260505011530 | 65 | 168 | 4.3 | 8.7 | 0.00 | 0.00 | 0.00 | 39 | 1007.0 |
| 20260505011029 | 65 | 148 | 6.1 | 8.7 | 0.00 | 0.00 | 0.00 | 39 | 1007.0 |
| 20260505010530 | 65 | 158 | 8.7 | 14.8 | 0.00 | 0.00 | 0.00 | 39 | 1007.0 |
| 20260505010029 | 66 | 144 | 14.8 | 18.2 | 0.00 | 0.00 | 0.00 | 39 | 1007.0 |
| 20260505005529 | 67 | 138 | 7.8 | 12.2 | 0.00 | 0.00 | 0.00 | 36 | 1007.0 |
| 20260505005029 | 68 | 148 | 9.6 | 13.9 | 0.00 | 0.00 | 0.00 | 30 | 1007.0 |
| 20260505004529 | 68 | 142 | 1.7 | 6.1 | 0.00 | 0.00 | 0.00 | 30 | 1007.0 |
| 20260505004030 | 68 | 158 | 7.0 | 11.3 | 0.00 | 0.00 | 0.00 | 30 | 1007.0 |
| 20260505003535 | 68 | 157 | 2.6 | 7.0 | 0.00 | 0.00 | 0.00 | 31 | 1007.0 |
| 20260505003030 | 68 | 63 | 0.9 | 3.5 | 0.00 | 0.00 | 0.00 | 31 | 1007.0 |
| 20260505002530 | 68 | 344 | 1.7 | 5.2 | 0.00 | 0.00 | 0.00 | 31 | 1007.0 |
| 20260505002029 | 69 | 306 | 3.5 | 7.8 | 0.00 | 0.00 | 0.00 | 31 | 1007.0 |
| 20260505001529 | 69 | 215 | 2.6 | 7.0 | 0.00 | 0.00 | 0.00 | 30 | 1007.0 |
| 20260505001029 | 69 | 0 | 0.0 | 0.0 | 0.00 | 0.00 | 0.00 | 32 | 1007.0 |
| 20260505000530 | 69 | 303 | 0.0 | 3.5 | 0.00 | 0.00 | 0.00 | 31 | 1007.0 |
| 20260505000029 | 70 | 329 | 0.0 | 0.9 | 0.00 | 0.00 | 0.00 | 30 | 1007.0 |
| 20260504235529 | 70 | 341 | 1.7 | 4.3 | 0.00 | 0.00 | 0.00 | 29 | 1007.0 |
| 20260504235029 | 69 | 151 | 0.0 | 1.7 | 0.00 | 0.00 | 0.00 | 31 | 1007.0 |
| 20260504234529 | 69 | 216 | 0.9 | 4.3 | 0.00 | 0.00 | 0.00 | 31 | 1007.0 |
| 20260504234029 | 69 | 306 | 4.3 | 10.4 | 0.00 | 0.00 | 0.00 | 31 | 1007.0 |
| 20260504233530 | 68 | 354 | 0.9 | 3.5 | 0.00 | 0.00 | 0.00 | 31 | 1007.0 |
| 20260504233029 | 68 | 335 | 2.6 | 5.2 | 0.00 | 0.00 | 0.00 | 32 | 1007.0 |
| 20260504232529 | 68 | 30 | 5.2 | 8.7 | 0.00 | 0.00 | 0.00 | 33 | 1007.0 |
| 20260504232030 | 69 | 141 | 5.2 | 9.6 | 0.00 | 0.00 | 0.00 | 33 | 1007.0 |
| 20260504231529 | 68 | 65 | 6.1 | 10.4 | 0.00 | 0.00 | 0.00 | 34 | 1007.0 |
| 20260504231031 | 68 | 107 | 4.3 | 9.6 | 0.00 | 0.00 | 0.00 | 34 | 1007.0 |
| 20260504230529 | 68 | 85 | 9.6 | 13.9 | 0.00 | 0.00 | 0.00 | 34 | 1007.0 |
| 20260504230030 | 68 | 72 | 5.2 | 9.6 | 0.00 | 0.00 | 0.00 | 32 | 1007.0 |
| 20260504225531 | 68 | 89 | 7.0 | 9.6 | 0.00 | 0.00 | 0.00 | 33 | 1007.0 |
| 20260504225029 | 69 | 75 | 9.6 | 13.0 | 0.00 | 0.00 | 0.00 | 32 | 1007.0 |
| 20260504224530 | 69 | 89 | 4.3 | 10.4 | 0.00 | 0.00 | 0.00 | 32 | 1007.0 |
| 20260504224029 | 69 | 85 | 9.6 | 16.5 | 0.00 | 0.00 | 0.00 | 33 | 1007.0 |
| 20260504223530 | 69 | 79 | 7.8 | 13.9 | 0.00 | 0.00 | 0.00 | 32 | 1007.0 |
| 20260504223031 | 69 | 83 | 5.2 | 9.6 | 0.00 | 0.00 | 0.00 | 32 | 1007.0 |
| 20260504222533 | 69 | 78 | 13.0 | 20.0 | 0.00 | 0.00 | 0.00 | 32 | 1007.0 |
| 20260504222030 | 69 | 64 | 7.8 | 14.8 | 0.00 | 0.00 | 0.00 | 32 | 1007.0 |
| 20260504221529 | 69 | 80 | 9.6 | 17.4 | 0.00 | 0.00 | 0.00 | 32 | 1007.0 |
| 20260504221029 | 70 | 89 | 11.3 | 24.3 | 0.00 | 0.00 | 0.00 | 31 | 1007.0 |
| 20260504220529 | 70 | 137 | 3.5 | 6.1 | 0.00 | 0.00 | 0.00 | 32 | 1007.0 |
| 20260504220029 | 70 | 309 | 2.6 | 5.2 | 0.00 | 0.00 | 0.00 | 29 | 1007.0 |
| 20260504215530 | 69 | 8 | 3.5 | 6.1 | 0.00 | 0.00 | 0.00 | 31 | 1007.0 |
| 20260504215029 | 69 | 316 | 4.3 | 8.7 | 0.00 | 0.00 | 0.00 | 31 | 1007.0 |
| 20260504214530 | 69 | 241 | 0.9 | 5.2 | 0.00 | 0.00 | 0.00 | 31 | 1007.0 |
| 20260504214030 | 69 | 305 | 5.2 | 10.4 | 0.00 | 0.00 | 0.00 | 32 | 1007.0 |
| 20260504213529 | 70 | 300 | 6.1 | 10.4 | 0.00 | 0.00 | 0.00 | 31 | 1007.0 |
| 20260504213031 | 70 | 285 | 9.6 | 15.6 | 0.00 | 0.00 | 0.00 | 31 | 1007.0 |
| 20260504212530 | 70 | 269 | 7.0 | 13.9 | 0.00 | 0.00 | 0.00 | 30 | 1007.0 |
| 20260504212032 | 71 | 283 | 3.5 | 7.0 | 0.00 | 0.00 | 0.00 | 30 | 1007.0 |
| 20260504211530 | 71 | 45 | 0.9 | 5.2 | 0.00 | 0.00 | 0.00 | 30 | 1007.0 |
| 20260504211029 | 72 | 164 | 5.2 | 12.2 | 0.00 | 0.00 | 0.00 | 29 | 1007.0 |
| 20260504210530 | 72 | 158 | 7.0 | 13.0 | 0.00 | 0.00 | 0.00 | 29 | 1007.0 |
| 20260504210029 | 72 | 36 | 3.5 | 8.7 | 0.00 | 0.00 | 0.00 | 30 | 1007.0 |
| 20260504205530 | 73 | 165 | 5.2 | 14.8 | 0.00 | 0.00 | 0.00 | 29 | 1007.0 |
| 20260504205032 | 74 | 126 | 3.5 | 7.0 | 0.00 | 0.00 | 0.00 | 29 | 1007.0 |
| 20260504204530 | 74 | 146 | 5.2 | 10.4 | 0.00 | 0.00 | 0.00 | 27 | 1007.0 |
| 20260504204030 | 73 | 209 | 4.3 | 7.8 | 0.00 | 0.00 | 0.00 | 28 | 1007.0 |
| 20260504203529 | 72 | 152 | 4.3 | 9.6 | 0.00 | 0.00 | 0.00 | 29 | 1007.0 |
| 20260504203031 | 72 | 145 | 7.8 | 13.0 | 0.00 | 0.00 | 0.00 | 25 | 1007.0 |
| 20260504202530 | 71 | 145 | 9.6 | 15.6 | 0.00 | 0.00 | 0.00 | 28 | 1007.0 |
| 20260504202030 | 71 | 178 | 5.2 | 13.9 | 0.00 | 0.00 | 0.00 | 30 | 1008.0 |
| 20260504201530 | 71 | 345 | 1.7 | 3.5 | 0.00 | 0.00 | 0.00 | 28 | 1008.0 |
| 20260504201029 | 72 | 310 | 3.5 | 7.0 | 0.00 | 0.00 | 0.00 | 25 | 1008.0 |
| 20260504200529 | 72 | 232 | 1.7 | 2.6 | 0.00 | 0.00 | 0.00 | 27 | 1008.0 |
| 20260504200029 | 72 | 140 | 1.7 | 5.2 | 0.00 | 0.00 | 0.00 | 27 | 1008.0 |
| 20260504195529 | 71 | 111 | 3.5 | 7.8 | 0.00 | 0.00 | 0.00 | 30 | 1008.0 |
| 20260504195031 | 72 | 175 | 5.2 | 7.8 | 0.00 | 0.00 | 0.00 | 29 | 1008.0 |
| 20260504194529 | 71 | 228 | 2.6 | 3.5 | 0.00 | 0.00 | 0.00 | 30 | 1008.0 |
| 20260504194029 | 71 | 152 | 11.3 | 16.5 | 0.00 | 0.00 | 0.00 | 30 | 1008.0 |
| 20260504193530 | 71 | 79 | 0.9 | 3.5 | 0.00 | 0.00 | 0.00 | 29 | 1008.0 |
| 20260504193030 | 70 | 151 | 7.8 | 11.3 | 0.00 | 0.00 | 0.00 | 31 | 1008.0 |
| 20260504192530 | 70 | 182 | 6.1 | 10.4 | 0.00 | 0.00 | 0.00 | 30 | 1008.0 |
| 20260504192030 | 71 | 154 | 9.6 | 14.8 | 0.00 | 0.00 | 0.00 | 30 | 1008.0 |
| 20260504191529 | 70 | 160 | 7.0 | 10.4 | 0.00 | 0.00 | 0.00 | 30 | 1008.0 |
| 20260504191029 | 70 | 147 | 7.0 | 13.0 | 0.00 | 0.00 | 0.00 | 32 | 1008.0 |
| 20260504190530 | 70 | 169 | 6.1 | 9.6 | 0.00 | 0.00 | 0.00 | 31 | 1008.0 |
| 20260504190030 | 69 | 136 | 2.6 | 4.3 | 0.00 | 0.00 | 0.00 | 32 | 1008.0 |
| 20260504185530 | 70 | 151 | 11.3 | 13.9 | 0.00 | 0.00 | 0.00 | 30 | 1009.0 |
| 20260504185030 | 70 | 153 | 7.8 | 11.3 | 0.00 | 0.00 | 0.00 | 32 | 1009.0 |
| 20260504184529 | 70 | 163 | 7.0 | 10.4 | 0.00 | 0.00 | 0.00 | 32 | 1009.0 |
| 20260504184031 | 69 | 157 | 7.8 | 10.4 | 0.00 | 0.00 | 0.00 | 32 | 1009.0 |
| 20260504183530 | 69 | 156 | 7.8 | 13.9 | 0.00 | 0.00 | 0.00 | 32 | 1009.0 |
| 20260504183030 | 69 | 156 | 3.5 | 7.0 | 0.00 | 0.00 | 0.00 | 32 | 1009.0 |
| 20260504182531 | 69 | 141 | 10.4 | 16.5 | 0.00 | 0.00 | 0.00 | 32 | 1009.0 |
| 20260504182032 | 70 | 143 | 7.0 | 10.4 | 0.00 | 0.00 | 0.00 | 32 | 1009.0 |
| 20260504181530 | 69 | 131 | 7.0 | 12.2 | 0.00 | 0.00 | 0.00 | 33 | 1009.0 |
| 20260504181030 | 70 | 162 | 7.0 | 9.6 | 0.00 | 0.00 | 0.00 | 32 | 1009.0 |
| 20260504180529 | 69 | 339 | 2.6 | 3.5 | 0.00 | 0.00 | 0.00 | 33 | 1009.0 |
| 20260504180030 | 69 | 143 | 3.5 | 7.0 | 0.00 | 0.00 | 0.00 | 34 | 1009.0 |
| 20260504175529 | 69 | 147 | 5.2 | 7.8 | 0.00 | 0.00 | 0.00 | 32 | 1009.0 |
| 20260504175032 | 69 | 170 | 6.1 | 11.3 | 0.00 | 0.00 | 0.00 | 32 | 1009.0 |
| 20260504174529 | 68 | 152 | 0.9 | 5.2 | 0.00 | 0.00 | 0.00 | 33 | 1009.0 |
| 20260504174030 | 68 | 156 | 8.7 | 12.2 | 0.00 | 0.00 | 0.00 | 33 | 1009.0 |
| 20260504173532 | 68 | 152 | 3.5 | 6.1 | 0.00 | 0.00 | 0.00 | 35 | 1010.0 |
| 20260504173030 | 68 | 159 | 6.1 | 13.0 | 0.00 | 0.00 | 0.00 | 34 | 1010.0 |
| 20260504172529 | 68 | 117 | 4.3 | 13.0 | 0.00 | 0.00 | 0.00 | 35 | 1010.0 |
| 20260504172032 | 67 | 145 | 9.6 | 14.8 | 0.00 | 0.00 | 0.00 | 34 | 1010.0 |
| 20260504171530 | 67 | 147 | 5.2 | 7.8 | 0.00 | 0.00 | 0.00 | 34 | 1010.0 |
| 20260504171029 | 67 | 149 | 7.8 | 9.6 | 0.00 | 0.00 | 0.00 | 33 | 1010.0 |
| 20260504170529 | 67 | 223 | 2.6 | 5.2 | 0.00 | 0.00 | 0.00 | 35 | 1010.0 |
| 20260504151030 | 63 | 20 | 3.5 | 4.3 | 0.00 | 0.00 | 0.00 | 44 | 1010.0 |
| 20260504150530 | 62 | 1 | 0.0 | 0.9 | 0.00 | 0.00 | 0.00 | 46 | 1010.0 |
| 20260504141029 | 59 | 72 | 4.3 | 5.2 | 0.00 | 0.00 | 0.00 | 49 | 1010.0 |
| 20260504140531 | 58 | 78 | 3.5 | 6.1 | 0.00 | 0.00 | 0.00 | 49 | 1010.0 |
| 20260504130532 | 54 | 85 | 0.0 | 0.9 | 0.00 | 0.00 | 0.00 | 60 | 1010.0 |
| 20260504110529 | 58 | 110 | 3.5 | 7.8 | 0.00 | 0.00 | 0.00 | 51 | 1010.0 |
| 20260504100529 | 58 | 28 | 3.5 | 3.5 | 0.00 | 0.00 | 0.00 | 41 | 1010.0 |
| 20260504081530 | 57 | 28 | 5.2 | 6.1 | 0.00 | 0.00 | 0.00 | 40 | 1010.0 |
| 20260504081029 | 56 | 37 | 4.3 | 6.1 | 0.00 | 0.00 | 0.00 | 42 | 1010.0 |
| 20260504080530 | 56 | 49 | 3.5 | 3.5 | 0.00 | 0.00 | 0.00 | 45 | 1010.0 |